SCP
0 0 0 0 0 0 0 0 0 0 -0 -0 0 0 0 0 0 0 0 0 0 0 0 0 0 0 0 0 0 0 0 0 0 0 0 0 0 0 0 0 0 0 0 0
0 0 0 0 0 0 0 0 0 0 0 0 0 0 0 0 0 0 0 -0 0 0 -0 0 0 0 0 0 0 0 0 0 0 0 0 0 -0 0 0 0 0 0 0 0
0 0 0 0 0 0 0 0 0 0 0 0 0 0 0 0 -0 0 -0 0 0 0 -0 0 0 0 0 0 0 0 0 -0 0 0 0 -0 0 0 -0 0 0 0 0 0
0 0 0 -0 0 0 0 0 0 0 0 0 0 0 -0 0 0 0 0 0 0 0 0 -0 0 0 -0 -0 0 0 0 -0 -0 0 0 -0 -0 0 -0 -0 0 0 0 0
0 0 0 0 0 0 0 0 0 0 0 0 0 0 0 0 0 0 0 0 0 0 0 -0 0 0 -0 -0 -0 -0 -0 -0 -0 0 0 0 -0 -0 -0 -0 -0 0 0 0
0 0 0 0 0 0 0 0 0 0 0 0 0 0 0 0 -0 0 0 0 0 0 -0 0 0 -0 -0 -0 -0 -0 -0 -0 -0 -0 -0 -0 -0 -0 -0 -0 -0 -0 -0 0
0 0 0 0 0 0 0 0 0 0 0 0 0 0 0 0 0 0 0 0 0 0 0 0 -0 -0 -0 -0 -0 -0 -0 -0 -0 -0 -0 -0 -0 -0 -0 -0 -0 -0 -0 -0
0 0 0 0 0 0 0 0 0 0 0 0 0 0 0 0 0 0 0 0 0 0 0 0 -0 -0 -0 -0 -0 -0 -0 -0 -0 -0 -0 -0 -0 -0 -0 -0 -0 -0 0 0
0 0 -0 0 0 0 0 0 0 0 0 0 0 0 -0 0 0 0 0 0 0 0 0 0 -0 -0 -0 -0 -0 -0 -0 -0 -0 -0 -0 -0 -0 -0 -0 -0 -0 -0 -0 0
0 0 0 0 0 0 0 0 0 0 0 0 0 0 0 0 0 0 0 0 0 0 0 0 -0 -0 -0 -0 -0 -0 -0 -0 -0 -0 -0 -0 -0 -0 -0 -0 -0 -0 -0 -0
0 0 0 0 0 0 0 0 0 0 0 0 0 0 0 0 0 0 0 0 0 0 0 0 0 -0 -0 -0 -0 -0 -0 -0 -0 -0 -0 0 -0 -0 -0 -0 -0 -0 -0 -0
0 0 0 0 0 0 0 0 0 0 0 0 0 0 0 0 0 0 0 0 0 0 0 0 0 0 -0 -0 -0 -0 -0 -0 -0 -0 -0 -0 -0 -0 -0 -0 -0 -0 -0 -0
0 0 0 0 0 0 0 0 0 0 0 0 0 0 -0 0 -0 0 0 0 0 -0 0 0 0 0 0 0 -0 -0 -0 -0 -0 -0 -0 -0 -0 -0 0 -0 -0 -0 -0 -0
0 0 0 0 0 0 0 0 0 0 0 0 0 0 0 0 0 0 0 0 0 0 0 0 0 0 0 0 0 0 -0 0 -0 -0 -0 -0 -0 0 0 0 0 0 0 0
0 0 0 0 0 0 0 0 0 0 0 0 0 0 0 0 0 0 0 0 0 0 0 0 0 0 0 0 0 0 0 0 0 0 0 0 -0 0 0 0 0 0 0 0
0 0 0 0 0 0 0 0 0 0 0 0 0 0 0 0 0 0 0 0 0 0 0 0 0 0 0 0 1 0 0 0 0 0 0 0 0 0 0 0 0 0 0 0
0 0 0 0 0 0 0 0 0 0 0 0 0 0 0 0 0 0 0 0 0 0 0 0 0 0 0 0 0 1 0 0 0 0 0 0 0 0 0 0 0 0 0 0
0 0 0 0 0 0 0 0 0 0 0 0 0 0 0 0 0 0 0 0 0 0 0 0 0 0 0 0 0 1 1 1 0 0 0 0 0 0 0 0 0 0 0 0
0 0 0 0 0 0 0 0 0 0 0 0 0 0 0 0 0 0 0 0 0 0 0 0 0 0 0 0 0 0 1 1 1 0 0 0 0 0 0 0 0 0 0 0
0 0 0 0 0 0 0 0 0 0 0 0 0 0 0 0 0 0 0 0 0 0 -0 0 0 0 0 0 0 0 1 1 1 1 0 0 0 0 0 0 0 0 0 0
0 0 0 0 0 0 0 0 0 0 0 0 0 0 0 0 0 0 0 -0 0 -0 -0 0 0 0 0 0 0 0 0 0 0 0 0 0 0 0 0 0 0 0 0 0
0 0 0 0 0 0 0 0 0 0 0 0 0 0 0 0 0 0 0 0 0 0 0 0 0 0 0 0 0 0 0 0 0 0 0 0 0 0 0 0 0 0 0 0
0 0 0 0 0 0 0 0 0 0 0 0 0 0 0 0 0 0 0 0 0 0 0 0 0 0 0 0 0 0 0 0 0 0 0 0 0 0 0 0 0 0 0 0
0 0 0 0 0 -0 -0 -0 -0 0 0 0 0 0 0 0 0 0 0 0 0 0 0 0 0 0 0 0 0 0 0 0 0 0 0 0 0 0 0 0 0 0 0 0
0 0 0 0 0 0 0 0 0 0 0 0 0 0 0 0 0 0 -0 0 0 0 0 0 0 0 0 0 0 0 0 0 0 0 0 0 0 0 0 0 0 0 0 0
0 0 0 0 0 0 0 0 0 0 0 0 0 0 0 0 0 -0 -0 -0 0 0 0 0 0 0 0 0 0 0 0 0 0 0 0 0 0 0 0 0 0 0 0 0
Wind_Speed_500mb
47 30 38 44 43 49 43 44 45 43 41 38 25 24 28 30 41 31 34 32 36 28 26 35 27 21 21 20 25 26 23 18 11 6 9 19 45 64 71 64 76 92 92 83
31 45 43 45 46 49 49 50 51 45 45 41 39 31 28 31 36 39 42 41 30 30 44 34 30 25 22 26 30 26 27 21 23 23 20 27 49 64 71 94 104 101 96 90
40 34 47 43 45 49 48 49 39 45 42 48 44 34 30 39 46 52 55 39 25 38 54 44 37 32 28 33 35 33 29 31 32 32 47 39 64 86 97 95 103 97 97 82
43 41 42 44 45 44 48 39 40 32 34 30 38 31 35 29 33 32 46 44 22 29 58 53 43 37 34 35 36 35 35 36 36 36 47 57 83 89 92 97 102 86 86 81
44 41 42 43 46 31 40 40 35 35 35 36 46 29 24 31 29 35 27 40 48 49 61 57 49 42 35 33 38 40 41 41 40 41 40 51 61 68 79 102 102 101 88 90
44 48 43 45 42 43 32 32 26 26 22 31 39 39 28 28 36 25 15 16 9 43 57 54 47 45 38 42 41 44 43 47 46 44 38 48 54 66 79 87 94 99 95 84
45 45 45 40 27 31 32 19 16 17 14 21 32 32 29 24 31 11 20 24 13 38 53 56 55 53 49 47 45 42 46 50 51 51 49 52 55 59 75 86 94 98 92 89
22 32 50 34 37 36 39 35 16 25 19 19 17 19 28 26 35 19 8 3 40 35 51 56 60 57 55 48 51 47 43 48 55 54 55 52 49 63 74 82 94 92 97 96
16 33 36 46 34 39 37 37 35 36 14 3 14 29 35 11 19 12 6 15 28 41 48 54 59 58 58 53 48 50 48 47 53 59 58 57 53 67 76 82 92 93 94 95
9 15 10 8 44 32 33 23 25 20 28 27 17 9 15 20 11 12 14 16 27 36 51 55 57 59 58 55 51 49 52 45 46 61 62 63 60 65 70 65 87 93 95 91
12 12 8 10 13 29 28 31 31 25 24 20 16 6 9 20 24 20 23 13 6 8 51 56 56 62 57 55 51 53 53 56 51 55 63 67 65 70 68 66 58 79 93 94
12 9 9 23 14 3 12 35 37 21 24 16 20 15 15 2 19 16 21 31 8 12 26 48 55 61 59 58 58 59 65 61 60 57 57 64 66 70 72 68 69 61 67 69
14 7 11 13 11 15 15 19 21 32 21 28 13 12 19 19 11 2 11 29 41 9 7 30 51 59 61 60 60 60 61 67 61 56 63 57 65 68 75 71 75 61 65 65
11 10 19 14 17 19 9 17 12 14 9 20 25 24 8 32 30 8 12 19 32 37 21 16 33 47 60 62 63 62 59 64 66 61 58 64 67 64 76 78 75 68 61 62
6 12 25 32 27 26 25 24 22 22 16 15 23 30 26 16 22 25 35 33 37 44 43 22 24 35 38 59 63 62 61 60 68 69 68 68 62 65 63 63 75 75 71 70
4 15 19 28 31 31 34 33 35 33 31 31 30 37 32 33 36 32 31 29 33 38 51 50 32 23 45 46 59 65 64 67 64 72 73 68 69 69 72 69 67 68 68 68
3 7 13 20 24 28 24 30 32 30 32 31 34 28 28 27 28 24 36 50 47 38 36 50 43 34 23 43 52 61 67 66 70 65 70 70 67 69 67 66 64 65 63 59
5 13 8 9 16 15 18 16 9 11 15 21 26 28 32 24 23 28 41 49 63 69 66 58 49 44 21 24 43 57 61 65 66 67 65 63 64 64 63 62 57 62 70 71
24 15 7 6 12 22 30 21 7 11 12 20 20 28 30 38 31 19 34 53 55 61 56 56 56 47 35 31 27 45 57 62 66 67 64 62 63 58 55 64 75 74 71 70
32 22 13 8 11 8 13 16 15 11 7 18 17 18 20 32 14 18 61 64 59 51 47 58 54 50 38 31 31 23 44 56 58 56 54 59 62 72 76 77 75 72 66 63
28 22 26 20 11 15 11 19 12 7 7 17 24 22 25 19 20 43 49 55 51 46 43 55 38 32 40 34 34 31 35 49 60 68 74 79 84 86 80 72 68 66 62 56
24 18 14 14 11 19 19 16 3 4 10 18 18 19 21 24 25 35 53 43 45 35 42 45 40 28 24 21 30 43 54 58 65 72 73 67 67 73 69 68 60 54 53 49
10 15 13 18 10 21 25 22 18 15 14 19 14 19 24 33 37 40 38 32 31 40 53 49 41 37 34 36 25 35 40 46 55 60 59 58 55 55 57 58 60 65 59 63
11 20 6 8 16 20 36 20 33 28 17 16 20 24 28 32 37 27 17 22 32 41 48 40 30 22 19 22 27 32 34 37 44 47 51 54 57 60 59 60 62 62 64 67
9 5 18 19 25 10 17 19 38 30 19 16 15 19 23 20 18 20 26 26 29 40 36 28 14 8 4 9 20 31 39 48 56 63 67 68 70 71 74 72 66 65 58 55
22 19 10 7 16 4 21 20 12 19 18 15 16 21 15 17 14 31 32 22 25 29 21 14 13 25 21 13 20 31 41 53 67 74 75 75 77 77 77 78 77 58 59 47
Wind_Direction_500mb
214 223 229 224 228 245 260 266 267 262 268 250 257 239 260 278 277 252 244 208 229 199 174 174 177 192 196 188 181 172 167 178 188 199 207 199 197 204 196 206 199 178 174 170
226 224 234 239 244 241 238 248 262 273 283 293 293 262 269 280 278 267 259 258 204 177 154 157 180 195 195 178 178 184 175 174 163 180 212 192 181 181 189 178 183 179 172 171
220 236 221 234 244 244 245 247 246 265 283 285 284 273 267 262 258 258 263 244 226 187 163 166 181 189 196 191 183 173 162 165 167 160 167 187 169 162 172 175 173 172 177 177
242 245 244 247 226 241 251 243 259 264 273 274 279 281 255 261 269 264 225 231 216 236 165 167 179 191 200 192 184 180 171 172 172 165 156 164 170 166 171 176 174 171 175 178
247 248 257 243 254 236 250 258 241 241 235 270 273 271 262 273 263 263 190 203 203 204 164 168 179 192 194 194 188 182 182 176 174 178 181 172 174 180 185 178 171 173 175 177
259 266 254 240 249 248 259 239 243 268 254 251 247 260 259 254 256 254 195 153 238 178 158 166 177 187 190 192 194 192 184 187 175 175 181 182 180 180 178 177 178 179 178 185
244 249 259 266 259 261 211 216 229 222 217 245 255 246 246 256 260 281 142 147 155 157 160 166 175 182 184 198 188 196 193 190 184 184 183 182 187 186 186 185 187 185 189 190
219 240 232 240 223 237 210 209 215 216 219 261 326 254 241 222 251 226 203 127 163 172 167 174 180 183 184 202 190 190 198 191 188 184 189 194 201 194 190 189 186 189 193 198
292 263 221 212 211 237 220 211 226 270 251 196 268 283 266 269 285 133 154 199 163 171 176 183 181 186 187 200 198 188 199 198 196 190 192 192 196 192 194 199 197 199 202 204
288 276 177 215 209 218 251 221 213 235 251 252 245 259 284 285 246 221 204 204 180 180 181 186 184 185 191 202 202 193 196 199 198 196 198 199 202 199 201 204 208 210 212 213
333 269 287 173 194 217 219 244 245 258 226 245 257 233 284 333 342 39 1 44 85 220 181 185 190 185 189 200 201 198 196 193 201 198 202 203 206 203 202 204 207 215 218 220
66 307 263 261 181 227 313 221 230 235 238 241 252 241 146 122 349 14 3 357 12 319 202 184 189 183 184 196 199 208 196 195 204 198 199 202 207 207 205 208 207 207 216 219
354 263 283 261 262 235 246 250 238 228 251 254 272 285 205 192 177 60 358 334 335 37 241 187 189 186 185 193 198 211 205 196 201 205 201 200 200 205 203 204 204 210 212 216
346 288 287 277 335 347 290 285 315 283 253 244 250 260 202 315 307 343 4 335 319 330 316 200 208 200 192 194 199 206 213 203 197 203 208 205 202 207 204 204 205 208 208 211
234 269 286 286 287 290 283 282 279 277 269 272 280 283 288 329 334 325 329 333 325 323 315 301 221 218 212 199 200 202 212 213 203 201 204 209 209 203 208 209 209 211 215 220
282 263 268 272 278 272 275 269 268 264 264 261 259 265 278 289 304 307 302 295 294 298 301 306 293 253 208 215 207 204 207 218 218 206 208 206 210 209 206 207 212 214 217 218
303 250 272 271 274 267 264 254 256 259 255 255 259 270 270 273 269 301 333 335 321 308 286 291 311 250 240 213 213 208 210 213 221 218 208 208 208 208 209 207 208 212 212 213
220 264 279 279 294 239 246 262 323 309 289 290 311 251 251 294 323 329 338 13 357 350 348 351 346 329 287 247 216 215 209 206 218 215 208 207 207 208 205 204 205 206 208 210
231 227 252 241 249 273 298 298 267 2 58 35 12 9 15 3 343 333 18 358 348 342 349 339 335 330 322 314 291 220 203 206 206 204 203 204 204 204 201 202 206 208 211 212
213 214 225 198 241 241 86 64 38 324 198 45 23 23 18 354 356 325 333 335 331 333 337 324 319 318 306 309 301 246 209 206 199 201 198 196 193 199 204 207 209 209 208 207
195 194 213 232 252 268 251 316 351 245 48 2 1 1 351 345 344 330 327 320 324 325 334 332 324 319 313 287 273 252 219 196 194 197 199 201 197 199 204 203 199 199 198 197
175 185 193 231 246 252 274 230 335 59 303 317 338 22 335 326 331 328 320 314 323 329 337 333 323 298 290 246 230 224 212 205 202 201 198 194 189 187 187 192 182 182 184 179
205 204 188 191 217 263 322 352 324 285 314 323 341 332 344 331 321 321 333 318 313 321 328 323 311 303 285 273 264 232 205 203 199 193 185 183 178 176 176 181 177 173 169 159
297 213 209 14 271 249 251 253 260 286 312 9 347 8 350 322 315 332 349 321 319 323 323 316 301 288 276 259 237 234 224 199 189 193 182 172 170 161 155 153 151 147 147 139
250 353 247 235 262 1 332 29 2 344 323 318 25 1 341 337 350 356 350 328 319 315 318 309 300 268 240 216 192 191 190 189 179 165 155 151 148 145 143 140 138 140 133 137
267 237 214 256 56 298 290 19 315 327 348 30 18 353 352 328 334 345 350 320 323 326 303 260 151 121 114 127 152 158 161 166 157 150 146 142 140 137 135 134 127 119 125 126
Wind_Speed_850mb
47 30 38 44 43 49 43 44 45 43 41 38 25 24 28 30 41 31 34 32 36 28 26 35 27 21 21 20 25 26 23 18 11 6 9 19 45 64 71 64 76 92 92 83
31 45 43 45 46 49 49 50 51 45 45 41 39 31 28 31 36 39 42 41 30 30 44 34 30 25 22 26 30 26 27 21 23 23 20 27 49 64 71 94 104 101 96 90
40 34 47 43 45 49 48 49 39 45 42 48 44 34 30 39 46 52 55 39 25 38 54 44 37 32 28 33 35 33 29 31 32 32 47 39 64 86 97 95 103 97 97 82
43 41 42 44 45 44 48 39 40 32 34 30 38 31 35 29 33 32 46 44 22 29 58 53 43 37 34 35 36 35 35 36 36 36 47 57 83 89 92 97 102 86 86 81
44 41 42 43 46 31 40 40 35 35 35 36 46 29 24 31 29 35 27 40 48 49 61 57 49 42 35 33 38 40 41 41 40 41 40 51 61 68 79 102 102 101 88 90
44 48 43 45 42 43 32 32 26 26 22 31 39 39 28 28 36 25 15 16 9 43 57 54 47 45 38 42 41 44 43 47 46 44 38 48 54 66 79 87 94 99 95 84
45 45 45 40 27 31 32 19 16 17 14 21 32 32 29 24 31 11 20 24 13 38 53 56 55 53 49 47 45 42 46 50 51 51 49 52 55 59 75 86 94 98 92 89
22 32 50 34 37 36 39 35 16 25 19 19 17 19 28 26 35 19 8 3 40 35 51 56 60 57 55 48 51 47 43 48 55 54 55 52 49 63 74 82 94 92 97 96
16 33 36 46 34 39 37 37 35 36 14 3 14 29 35 11 19 12 6 15 28 41 48 54 59 58 58 53 48 50 48 47 53 59 58 57 53 67 76 82 92 93 94 95
9 15 10 8 44 32 33 23 25 20 28 27 17 9 15 20 11 12 14 16 27 36 51 55 57 59 58 55 51 49 52 45 46 61 62 63 60 65 70 65 87 93 95 91
12 12 8 10 13 29 28 31 31 25 24 20 16 6 9 20 24 20 23 13 6 8 51 56 56 62 57 55 51 53 53 56 51 55 63 67 65 70 68 66 58 79 93 94
12 9 9 23 14 3 12 35 37 21 24 16 20 15 15 2 19 16 21 31 8 12 26 48 55 61 59 58 58 59 65 61 60 57 57 64 66 70 72 68 69 61 67 69
14 7 11 13 11 15 15 19 21 32 21 28 13 12 19 19 11 2 11 29 41 9 7 30 51 59 61 60 60 60 61 67 61 56 63 57 65 68 75 71 75 61 65 65
11 10 19 14 17 19 9 17 12 14 9 20 25 24 8 32 30 8 12 19 32 37 21 16 33 47 60 62 63 62 59 64 66 61 58 64 67 64 76 78 75 68 61 62
6 12 25 32 27 26 25 24 22 22 16 15 23 30 26 16 22 25 35 33 37 44 43 22 24 35 38 59 63 62 61 60 68 69 68 68 62 65 63 63 75 75 71 70
4 15 19 28 31 31 34 33 35 33 31 31 30 37 32 33 36 32 31 29 33 38 51 50 32 23 45 46 59 65 64 67 64 72 73 68 69 69 72 69 67 68 68 68
3 7 13 20 24 28 24 30 32 30 32 31 34 28 28 27 28 24 36 50 47 38 36 50 43 34 23 43 52 61 67 66 70 65 70 70 67 69 67 66 64 65 63 59
5 13 8 9 16 15 18 16 9 11 15 21 26 28 32 24 23 28 41 49 63 69 66 58 49 44 21 24 43 57 61 65 66 67 65 63 64 64 63 62 57 62 70 71
24 15 7 6 12 22 30 21 7 11 12 20 20 28 30 38 31 19 34 53 55 61 56 56 56 47 35 31 27 45 57 62 66 67 64 62 63 58 55 64 75 74 71 70
32 22 13 8 11 8 13 16 15 11 7 18 17 18 20 32 14 18 61 64 59 51 47 58 54 50 38 31 31 23 44 56 58 56 54 59 62 72 76 77 75 72 66 63
28 22 26 20 11 15 11 19 12 7 7 17 24 22 25 19 20 43 49 55 51 46 43 55 38 32 40 34 34 31 35 49 60 68 74 79 84 86 80 72 68 66 62 56
24 18 14 14 11 19 19 16 3 4 10 18 18 19 21 24 25 35 53 43 45 35 42 45 40 28 24 21 30 43 54 58 65 72 73 67 67 73 69 68 60 54 53 49
10 15 13 18 10 21 25 22 18 15 14 19 14 19 24 33 37 40 38 32 31 40 53 49 41 37 34 36 25 35 40 46 55 60 59 58 55 55 57 58 60 65 59 63
11 20 6 8 16 20 36 20 33 28 17 16 20 24 28 32 37 27 17 22 32 41 48 40 30 22 19 22 27 32 34 37 44 47 51 54 57 60 59 60 62 62 64 67
9 5 18 19 25 10 17 19 38 30 19 16 15 19 23 20 18 20 26 26 29 40 36 28 14 8 4 9 20 31 39 48 56 63 67 68 70 71 74 72 66 65 58 55
22 19 10 7 16 4 21 20 12 19 18 15 16 21 15 17 14 31 32 22 25 29 21 14 13 25 21 13 20 31 41 53 67 74 75 75 77 77 77 78 77 58 59 47
Wind_Direction_850mb
214 223 229 224 228 245 260 266 267 262 268 250 257 239 260 278 277 252 244 208 229 199 174 174 177 192 196 188 181 172 167 178 188 199 207 199 197 204 196 206 199 178 174 170
226 224 234 239 244 241 238 248 262 273 283 293 293 262 269 280 278 267 259 258 204 177 154 157 180 195 195 178 178 184 175 174 163 180 212 192 181 181 189 178 183 179 172 171
220 236 221 234 244 244 245 247 246 265 283 285 284 273 267 262 258 258 263 244 226 187 163 166 181 189 196 191 183 173 162 165 167 160 167 187 169 162 172 175 173 172 177 177
242 245 244 247 226 241 251 243 259 264 273 274 279 281 255 261 269 264 225 231 216 236 165 167 179 191 200 192 184 180 171 172 172 165 156 164 170 166 171 176 174 171 175 178
247 248 257 243 254 236 250 258 241 241 235 270 273 271 262 273 263 263 190 203 203 204 164 168 179 192 194 194 188 182 182 176 174 178 181 172 174 180 185 178 171 173 175 177
259 266 254 240 249 248 259 239 243 268 254 251 247 260 259 254 256 254 195 153 238 178 158 166 177 187 190 192 194 192 184 187 175 175 181 182 180 180 178 177 178 179 178 185
244 249 259 266 259 261 211 216 229 222 217 245 255 246 246 256 260 281 142 147 155 157 160 166 175 182 184 198 188 196 193 190 184 184 183 182 187 186 186 185 187 185 189 190
219 240 232 240 223 237 210 209 215 216 219 261 326 254 241 222 251 226 203 127 163 172 167 174 180 183 184 202 190 190 198 191 188 184 189 194 201 194 190 189 186 189 193 198
292 263 221 212 211 237 220 211 226 270 251 196 268 283 266 269 285 133 154 199 163 171 176 183 181 186 187 200 198 188 199 198 196 190 192 192 196 192 194 199 197 199 202 204
288 276 177 215 209 218 251 221 213 235 251 252 245 259 284 285 246 221 204 204 180 180 181 186 184 185 191 202 202 193 196 199 198 196 198 199 202 199 201 204 208 210 212 213
333 269 287 173 194 217 219 244 245 258 226 245 257 233 284 333 342 39 1 44 85 220 181 185 190 185 189 200 201 198 196 193 201 198 202 203 206 203 202 204 207 215 218 220
66 307 263 261 181 227 313 221 230 235 238 241 252 241 146 122 349 14 3 357 12 319 202 184 189 183 184 196 199 208 196 195 204 198 199 202 207 207 205 208 207 207 216 219
354 263 283 261 262 235 246 250 238 228 251 254 272 285 205 192 177 60 358 334 335 37 241 187 189 186 185 193 198 211 205 196 201 205 201 200 200 205 203 204 204 210 212 216
346 288 287 277 335 347 290 285 315 283 253 244 250 260 202 315 307 343 4 335 319 330 316 200 208 200 192 194 199 206 213 203 197 203 208 205 202 207 204 204 205 208 208 211
234 269 286 286 287 290 283 282 279 277 269 272 280 283 288 329 334 325 329 333 325 323 315 301 221 218 212 199 200 202 212 213 203 201 204 209 209 203 208 209 209 211 215 220
282 263 268 272 278 272 275 269 268 264 264 261 259 265 278 289 304 307 302 295 294 298 301 306 293 253 208 215 207 204 207 218 218 206 208 206 210 209 206 207 212 214 217 218
303 250 272 271 274 267 264 254 256 259 255 255 259 270 270 273 269 301 333 335 321 308 286 291 311 250 240 213 213 208 210 213 221 218 208 208 208 208 209 207 208 212 212 213
220 264 279 279 294 239 246 262 323 309 289 290 311 251 251 294 323 329 338 13 357 350 348 351 346 329 287 247 216 215 209 206 218 215 208 207 207 208 205 204 205 206 208 210
231 227 252 241 249 273 298 298 267 2 58 35 12 9 15 3 343 333 18 358 348 342 349 339 335 330 322 314 291 220 203 206 206 204 203 204 204 204 201 202 206 208 211 212
213 214 225 198 241 241 86 64 38 324 198 45 23 23 18 354 356 325 333 335 331 333 337 324 319 318 306 309 301 246 209 206 199 201 198 196 193 199 204 207 209 209 208 207
195 194 213 232 252 268 251 316 351 245 48 2 1 1 351 345 344 330 327 320 324 325 334 332 324 319 313 287 273 252 219 196 194 197 199 201 197 199 204 203 199 199 198 197
175 185 193 231 246 252 274 230 335 59 303 317 338 22 335 326 331 328 320 314 323 329 337 333 323 298 290 246 230 224 212 205 202 201 198 194 189 187 187 192 182 182 184 179
205 204 188 191 217 263 322 352 324 285 314 323 341 332 344 331 321 321 333 318 313 321 328 323 311 303 285 273 264 232 205 203 199 193 185 183 178 176 176 181 177 173 169 159
297 213 209 14 271 249 251 253 260 286 312 9 347 8 350 322 315 332 349 321 319 323 323 316 301 288 276 259 237 234 224 199 189 193 182 172 170 161 155 153 151 147 147 139
250 353 247 235 262 1 332 29 2 344 323 318 25 1 341 337 350 356 350 328 319 315 318 309 300 268 240 216 192 191 190 189 179 165 155 151 148 145 143 140 138 140 133 137
267 237 214 256 56 298 290 19 315 327 348 30 18 353 352 328 334 345 350 320 323 326 303 260 151 121 114 127 152 158 161 166 157 150 146 142 140 137 135 134 127 119 125 126